Theta_e
293 293 293 292 292 292 292 292 292 293 292 292 292 292 292 293 293 293 292 292 292 292 289 289 290 288 288 288 290 285 288 284 286 291 291 291 291 295 295 295 295 299 300 299 301 305 305 296 301 305 300 298 301 301
292 292 292 292 292 293 293 293 293 292 293 292 292 292 292 292 293 293 292 292 292 292 288 290 290 290 290 290 289 286 288 286 288 287 289 291 291 290 290 293 295 300 303 303 303 303 297 293 294 293 293 297 299 300
292 292 292 292 292 292 292 292 292 292 292 292 292 292 292 292 292 293 292 291 290 290 287 284 287 290 290 290 290 290 290 290 290 290 291 292 291 294 294 294 295 296 294 300 301 296 293 291 291 290 292 294 295 296
291 291 292 292 292 292 292 292 292 292 292 292 292 292 292 292 292 292 292 292 291 287 289 286 289 288 289 289 289 289 290 290 290 291 291 292 293 293 294 294 294 294 292 293 292 291 291 289 288 289 290 291 291 291
292 292 292 292 292 292 292 292 292 292 291 292 292 292 292 292 292 292 291 291 291 290 285 287 286 288 289 290 290 289 289 290 290 291 292 292 292 293 292 293 292 290 291 294 295 291 290 288 288 288 288 288 289 289
292 292 292 291 292 292 292 292 291 291 291 292 292 292 291 291 291 291 286 288 288 289 283 285 284 286 289 292 291 291 290 290 291 292 292 292 290 292 293 292 289 288 288 289 290 287 287 286 286 287 287 287 287 287
292 292 291 291 292 291 291 291 291 291 291 291 292 291 290 290 290 290 287 289 289 288 282 283 286 289 290 289 292 293 291 290 290 292 290 289 290 290 290 289 288 287 287 286 287 287 287 286 286 286 286 286 287 286
291 291 291 291 291 291 291 290 291 291 291 291 291 290 290 289 289 288 289 289 290 288 287 285 288 290 288 291 292 289 291 290 289 289 289 289 289 290 288 288 288 288 287 286 286 286 286 286 286 286 286 286 285 285
291 292 291 291 291 291 290 290 291 291 291 290 288 288 289 288 287 288 288 289 289 287 287 288 290 290 288 290 291 290 291 291 290 289 288 288 287 287 289 288 287 288 287 286 285 285 285 285 285 285 285 285 285 285
292 292 291 291 291 290 290 290 290 290 290 287 287 287 280 287 288 289 289 289 289 289 289 289 288 289 288 289 290 291 291 292 290 289 288 287 286 285 286 286 287 288 288 288 287 285 285 285 285 285 285 285 285 285
292 291 291 291 290 290 290 290 290 289 288 287 283 283 286 287 286 277 277 280 281 284 286 288 287 288 288 288 289 290 290 289 289 289 286 286 285 285 285 284 285 285 286 286 286 286 286 286 286 286 285 284 284 284
291 291 290 290 289 289 290 290 289 288 288 287 287 287 285 277 274 277 270 278 280 286 286 286 286 287 288 288 289 288 288 286 287 286 285 285 284 284 284 284 284 284 284 284 284 284 284 284 284 284 283 283 283 283
291 290 290 289 288 289 289 289 288 287 286 286 280 274 276 274 276 275 274 276 279 282 284 284 285 288 288 288 286 286 287 288 287 284 285 284 283 283 283 283 282 282 282 283 283 282 282 282 282 282 282 282 282 282
290 290 290 286 288 289 288 286 285 285 285 273 273 278 273 273 273 279 281 280 280 280 282 283 286 287 287 286 287 286 287 286 285 284 284 283 282 282 281 281 281 281 281 281 281 281 281 280 280 280 280 281 281 280
290 289 285 287 288 288 286 285 284 284 283 272 274 274 276 278 278 280 279 280 280 281 283 284 286 286 284 283 284 284 282 284 285 285 284 282 281 280 280 280 280 280 280 279 279 279 279 278 278 278 278 279 279 279
290 286 285 288 287 285 285 285 284 283 278 273 274 275 277 277 277 277 278 279 281 281 281 283 283 281 282 281 281 281 280 283 284 283 282 280 279 279 279 279 279 278 278 278 278 278 277 277 277 277 278 278 278 278
288 286 287 287 285 285 285 285 284 270 271 272 275 274 279 277 277 277 278 278 279 280 285 281 279 281 281 280 280 280 282 281 281 280 279 278 278 278 278 278 278 277 277 276 276 276 276 276 277 277 276 277 277 277
289 287 286 285 284 285 284 283 276 272 276 273 278 276 279 278 277 277 276 277 279 283 280 278 278 275 278 281 281 280 279 278 278 278 277 277 277 277 277 277 276 276 276 275 275 275 275 275 275 275 276 276 277 276
288 286 284 284 284 284 278 276 276 273 276 275 278 276 278 278 277 276 277 277 277 277 276 275 274 274 278 277 280 280 279 278 277 276 276 275 275 276 276 275 275 275 275 275 275 274 275 275 275 276 276 276 276 276
285 284 284 284 284 283 272 270 274 271 275 278 277 275 281 279 277 277 276 277 276 276 275 275 274 275 275 275 278 279 278 278 277 276 276 275 274 274 274 274 273 273 273 273 274 275 274 274 275 275 276 276 275 275
284 284 284 283 283 280 269 264 267 270 267 279 275 277 280 278 278 277 276 276 274 274 275 274 275 274 274 273 274 275 275 276 275 276 275 274 274 273 273 273 273 272 272 271 271 272 273 273 274 275 275 275 275 275
283 283 283 282 279 276 269 269 268 267 269 270 277 276 278 278 278 276 276 274 273 273 274 274 274 274 273 272 272 272 273 274 273 274 274 274 273 273 273 272 272 271 271 271 271 271 272 273 274 274 274 274 275 275
282 282 281 279 274 272 272 270 270 266 272 271 269 275 277 277 277 276 274 274 274 273 273 273 272 271 271 271 271 272 272 272 271 271 271 271 271 271 271 272 272 271 270 271 271 271 272 273 273 273 274 274 275 276
281 276 269 268 267 273 266 267 266 266 264 266 266 274 274 273 274 274 275 275 274 272 272 272 272 272 271 270 270 269 270 271 271 271 271 271 270 270 271 271 272 271 271 271 271 272 272 272 273 273 273 274 275 276
275 273 270 269 263 270 269 268 266 270 269 263 267 270 271 272 275 275 275 273 272 270 271 271 271 271 269 268 270 269 269 270 270 270 271 271 271 271 271 271 271 271 271 270 270 271 272 272 272 273 273 274 275 276
273 270 271 271 269 272 269 272 268 268 265 268 267 264 263 272 273 274 275 272 272 271 270 269 269 270 269 269 269 269 269 269 270 271 271 271 271 270 269 268 268 271 271 270 270 271 271 272 272 273 273 274 274 274
274 271 273 275 273 272 272 270 270 268 265 269 266 266 266 272 273 273 272 270 270 269 269 269 269 269 268 269 270 270 270 270 271 271 271 272 271 270 270 269 268 271 271 270 271 271 271 272 272 273 273 274 274 274
274 272 273 269 269 267 268 266 265 267 267 269 270 267 269 272 274 271 270 269 269 269 270 270 270 269 270 270 269 270 271 272 272 272 272 271 271 271 270 271 271 270 271 270 270 271 271 272 273 273 273 273 273 273
275 275 273 267 265 264 264 266 267 269 270 268 266 268 266 269 268 269 269 269 269 269 270 270 269 270 270 270 270 270 270 271 272 264 264 264 269 271 271 271 271 271 271 271 270 270 271 273 272 273 272 272 272 273
275 274 269 264 268 269 267 267 264 264 267 265 266 267 268 267 269 269 269 269 269 269 269 269 269 270 270 270 270 270 270 270 269 269 265 265 268 269 271 271 271 271 271 270 270 270 271 271 272 272 272 272 272 272
273 272 269 268 267 266 265 267 268 267 264 260 263 263 266 264 269 269 270 270 270 270 269 269 269 269 270 270 269 269 270 269 269 269 268 268 269 270 271 272 272 271 270 270 269 269 269 270 270 270 270 270 270 271
269 269 269 270 269 267 267 264 263 263 262 262 263 260 262 264 266 269 270 270 270 270 270 270 269 269 269 270 270 269 269 269 269 269 269 269 270 271 272 272 271 271 270 269 269 269 269 269 269 269 269 270 270 270
265 266 267 268 269 270 269 266 267 267 262 262 263 261 260 265 267 269 270 270 270 271 271 270 270 270 271 270 270 270 270 269 269 269 268 269 271 272 272 272 271 270 269 269 269 268 268 268 268 269 269 269 269 270
Wind_Speed
17 20 21 23 23 24 25 25 26 27 28 28 30 30 29 28 26 22 21 16 9 2 6 8 6 6 2 3 9 3 3 3 0 3 3 3 4 1 2 5 4 5 8 7 8 11 14 3 3 3 3 6 5 5
19 21 22 23 25 26 27 28 30 30 31 31 32 33 32 29 28 25 21 20 15 4 6 21 30 30 23 28 8 5 6 3 3 1 2 3 4 3 3 3 3 4 6 3 11 7 2 2 1 6 5 6 5 1
19 21 23 24 26 28 30 31 31 32 33 34 33 32 32 32 30 25 22 14 6 2 5 2 7 20 22 29 32 8 7 7 5 3 3 3 5 3 2 3 4 5 4 4 3 0 2 3 4 5 5 2 4 11
20 23 25 27 29 30 32 33 33 34 34 34 35 36 36 34 31 25 18 9 4 2 2 6 6 14 19 17 23 25 21 8 3 3 5 4 4 2 2 5 8 6 8 5 4 2 1 10 5 2 7 9 15 15
22 24 27 29 31 32 33 34 35 35 34 36 37 37 36 34 29 23 17 13 13 4 3 5 16 9 9 8 18 22 17 11 5 4 4 3 2 3 3 4 2 3 4 3 3 3 5 3 3 6 13 14 15 20
24 27 29 31 32 33 35 35 34 34 36 39 38 36 33 26 18 5 3 3 4 7 2 4 5 4 8 17 18 8 7 5 3 3 2 2 3 3 2 2 7 12 12 12 4 8 13 9 10 12 18 18 18 20
25 28 30 32 33 35 34 33 33 35 38 38 36 31 20 16 4 3 2 9 9 3 2 4 4 2 8 6 4 3 6 2 2 2 2 2 2 3 2 3 8 13 11 6 5 12 10 9 11 16 20 20 26 24
26 29 31 33 35 34 32 31 36 36 37 36 31 17 8 8 5 5 8 1 3 1 1 2 4 3 7 2 3 3 2 2 5 2 2 2 2 2 3 5 5 8 9 12 13 15 14 14 17 17 18 18 22 20
27 29 32 34 34 31 29 35 35 36 35 32 18 6 3 5 4 4 7 4 1 2 1 1 5 4 5 2 2 2 1 3 2 4 4 4 5 6 8 8 9 9 8 8 14 17 17 19 19 19 19 19 23 19
28 31 33 34 32 29 30 35 35 33 30 17 8 4 3 2 12 4 2 0 1 1 1 1 3 3 3 2 2 3 2 3 2 3 2 4 4 11 12 13 11 9 9 12 16 18 19 20 20 20 19 16 18 17
30 32 34 33 29 26 34 33 31 28 13 8 6 2 8 11 2 3 3 3 3 4 3 3 3 5 1 2 3 4 2 2 3 5 3 5 5 10 13 15 13 14 14 15 15 16 17 19 18 17 17 16 21 23
31 33 34 30 24 31 32 31 26 21 11 7 7 6 5 5 4 6 2 4 4 4 4 4 5 4 2 2 2 3 3 3 4 2 3 3 6 10 13 15 16 15 17 19 23 19 22 23 23 19 17 18 21 22
32 35 32 22 27 31 31 26 22 16 7 2 4 5 4 4 8 6 6 5 4 5 3 8 9 3 2 1 2 3 5 3 1 4 3 3 7 10 11 12 15 21 22 22 20 24 25 24 24 22 18 18 20 21
35 36 28 20 31 32 28 21 20 11 5 4 4 7 4 5 3 2 2 4 4 4 8 8 4 2 2 3 2 4 2 3 3 3 3 4 7 9 10 10 12 13 14 15 17 21 21 21 21 22 21 19 20 18
35 33 15 29 33 31 24 13 14 11 6 4 5 4 3 3 4 3 4 4 5 7 5 4 2 2 2 3 3 3 5 4 3 2 2 3 7 9 9 10 10 11 10 12 16 17 18 18 18 19 21 20 20 18
33 19 15 30 31 24 21 8 13 6 5 4 5 4 5 4 3 4 6 7 4 5 5 2 1 3 4 2 5 4 3 3 3 2 3 4 8 8 8 9 12 15 15 16 17 17 17 17 15 15 19 19 17 16
26 10 28 27 28 13 18 6 6 6 4 4 2 1 5 3 5 6 8 5 10 4 1 2 5 2 2 3 3 4 3 4 6 5 6 8 8 7 10 13 15 15 15 16 16 16 16 17 17 19 15 14 14 12
24 27 21 25 22 7 5 9 5 4 4 1 1 3 4 4 5 6 4 5 3 3 2 2 3 6 4 3 3 2 5 6 7 7 7 7 12 13 14 13 14 14 14 15 17 17 17 17 15 12 12 10 10 9
24 18 19 20 13 3 4 5 6 3 2 1 2 1 2 4 7 8 5 8 6 7 3 3 5 3 3 3 4 5 4 5 5 6 7 13 14 13 13 13 13 14 14 14 16 14 13 13 12 11 9 9 9 7
18 10 18 14 8 3 5 3 3 4 2 2 1 2 1 4 6 6 9 8 5 3 7 5 4 3 3 3 4 5 5 6 5 6 6 8 12 13 13 12 12 12 14 14 13 12 14 14 14 13 11 9 9 9
10 12 10 10 4 9 5 1 4 1 1 2 2 2 2 2 8 8 7 6 6 4 4 4 3 4 9 11 13 12 14 12 5 3 3 4 8 11 12 14 14 14 14 15 15 14 13 11 12 10 12 9 10 9
7 12 5 6 5 4 4 3 2 1 2 1 2 3 3 3 4 4 3 7 4 4 3 3 5 6 8 11 11 16 14 17 17 15 13 10 5 6 8 10 14 15 14 13 13 12 13 13 13 12 13 11 10 8
8 5 3 8 5 5 3 5 4 6 3 4 2 4 3 3 3 3 3 3 2 6 8 8 8 10 11 13 16 20 17 15 13 13 12 13 12 11 10 9 10 14 12 15 14 13 14 12 11 12 11 10 8 6
6 5 4 3 3 1 2 5 2 3 3 4 3 3 3 2 3 3 3 2 1 6 8 10 8 3 7 10 10 11 12 11 13 15 12 12 10 11 10 9 10 14 15 14 13 15 15 15 12 12 12 11 8 9
5 6 4 5 3 5 5 5 5 4 2 2 3 3 2 2 3 3 1 1 1 2 5 7 8 7 2 1 5 8 10 7 5 7 9 13 13 14 13 11 7 10 18 19 18 18 17 16 15 13 13 11 11 10
5 4 3 0 3 3 1 2 2 1 1 3 1 3 2 2 3 2 2 2 1 1 1 3 2 2 3 4 2 5 9 9 2 3 4 6 10 13 14 12 12 13 20 20 16 18 18 18 16 16 15 14 12 12
3 2 2 3 1 2 2 3 2 3 2 1 2 3 3 3 2 1 1 1 1 1 1 1 1 1 3 5 6 6 8 8 1 2 2 3 4 9 14 16 15 16 21 19 15 17 18 18 19 18 17 17 14 12
2 2 2 3 3 2 3 2 2 0 2 2 1 2 4 5 2 1 1 2 1 1 1 1 1 3 3 2 4 6 7 5 4 5 3 1 3 2 12 14 13 13 18 18 17 16 15 17 17 16 15 15 16 12
2 2 2 4 3 3 1 2 2 1 1 1 3 2 2 1 1 1 1 0 1 2 2 2 1 0 1 2 2 4 8 9 3 4 2 2 6 2 13 15 17 15 20 22 19 15 14 15 15 14 12 12 11 10
2 2 3 1 2 1 2 1 2 2 1 1 1 1 1 1 1 1 1 1 1 3 3 2 1 1 3 3 2 1 0 5 9 9 1 3 8 15 16 17 19 15 19 22 23 20 16 14 14 13 13 13 12 12
2 1 3 2 1 2 2 1 1 2 3 2 2 2 2 2 2 3 4 3 3 3 3 4 2 1 1 3 4 5 2 2 5 9 10 12 13 13 16 17 16 14 19 22 21 18 17 15 15 14 13 14 13 13
3 2 2 1 1 1 1 2 1 1 3 2 2 2 3 2 1 3 5 7 5 4 1 3 5 3 3 4 4 6 6 6 6 11 12 12 12 16 17 17 11 17 21 22 19 16 14 13 13 12 12 12 13 14
2 2 2 2 2 0 0 2 3 3 3 2 2 1 1 2 4 1 6 7 5 4 3 2 7 7 2 3 7 5 4 6 11 11 11 11 13 13 14 13 17 20 21 20 17 14 13 12 12 11 10 11 11 12
Wind_Direction
350 351 347 345 344 343 341 338 333 329 325 325 324 321 321 319 315 308 294 289 237 258 261 215 230 222 300 205 253 252 324 323 3 240 254 212 234 237 286 281 280 185 180 193 228 217 244 18 0 186 318 316 313 298
351 348 344 342 340 338 334 332 327 325 321 321 319 316 318 318 317 310 290 290 275 225 250 275 262 258 233 244 248 208 227 192 249 166 284 325 311 299 255 266 299 267 226 255 194 200 216 127 187 290 297 271 293 327
346 343 341 340 340 336 333 329 324 322 322 321 321 319 316 315 314 309 304 295 235 227 281 341 253 282 262 250 245 239 236 208 221 180 254 233 248 252 260 267 292 266 26 271 229 158 336 31 30 351 332 12 69 112
344 341 337 339 338 335 332 327 322 322 320 320 319 318 315 310 306 305 293 292 220 197 264 282 307 282 299 282 253 225 238 225 178 169 233 228 248 219 225 263 276 296 320 316 299 288 158 41 40 12 62 76 89 91
340 339 339 337 334 332 328 324 323 322 321 322 320 319 316 311 304 294 289 270 239 231 241 288 309 294 331 304 263 237 227 222 219 214 214 225 227 218 228 243 46 331 281 273 297 330 59 50 33 89 92 90 95 103
335 335 336 336 334 330 326 323 324 322 321 324 323 324 322 319 321 292 15 213 175 190 60 313 287 291 304 302 295 290 210 192 192 189 191 231 7 309 308 21 353 344 323 241 296 71 90 96 82 88 94 93 93 95
338 337 336 335 333 328 327 328 328 325 325 325 327 327 328 346 338 115 180 149 143 131 76 307 296 273 320 305 334 24 41 49 359 94 54 346 3 345 12 5 347 5 351 4 79 95 73 76 98 92 91 93 92 91
338 336 336 335 331 330 330 333 330 328 328 328 328 325 324 356 59 59 35 242 142 123 154 269 280 335 357 322 314 357 34 36 19 41 351 351 337 13 32 339 353 29 10 49 68 82 97 102 89 86 90 95 89 88
336 335 336 333 331 330 331 335 332 332 330 330 332 323 313 26 37 328 315 332 214 96 304 317 347 315 -0 306 308 321 305 55 32 42 20 18 4 28 355 16 34 42 60 63 74 79 84 84 85 84 87 86 90 86
334 335 335 332 332 332 335 337 336 335 333 337 344 14 359 6 327 319 67 51 346 52 340 336 334 296 332 321 303 323 28 43 56 32 28 19 44 7 17 28 25 51 68 68 73 74 79 76 76 76 75 76 81 85
334 337 336 333 333 335 339 339 340 340 345 360 17 334 315 334 9 27 25 65 332 12 0 350 311 322 314 327 321 359 47 25 49 14 53 17 15 356 23 34 30 40 52 62 72 64 69 73 74 72 67 67 72 78
337 337 337 334 338 341 341 342 345 348 332 311 296 298 319 27 27 68 331 336 30 10 347 345 323 301 332 321 316 358 73 40 52 348 49 34 347 358 30 35 36 42 52 54 54 61 57 56 59 63 60 61 67 74
337 340 336 334 343 344 343 347 349 344 343 333 30 42 32 324 33 55 348 327 342 338 337 331 327 321 322 331 14 12 65 66 80 40 48 13 347 21 28 34 41 41 51 56 56 61 66 67 64 67 71 68 76 76
338 336 334 334 343 344 347 354 357 0 28 66 53 19 67 358 5 287 322 282 276 279 303 310 295 339 341 353 354 69 44 75 60 50 30 355 14 33 38 43 51 44 44 53 54 58 59 61 61 58 59 67 76 72
335 333 329 343 342 344 353 9 18 45 50 58 51 17 343 293 277 280 288 289 281 283 289 296 282 338 352 41 19 58 43 60 53 55 51 22 39 42 39 40 44 48 49 54 56 60 62 63 64 60 65 74 79 81
335 337 335 338 339 346 1 33 39 54 54 64 49 349 312 321 309 314 317 308 296 316 295 281 353 52 27 50 45 30 81 71 94 72 71 60 51 47 50 48 48 50 53 58 57 60 61 59 62 70 74 71 72 75
340 336 331 333 340 349 19 43 44 45 95 43 349 275 316 291 297 311 309 301 313 292 329 57 47 16 330 51 48 13 31 94 105 80 69 61 56 50 54 59 58 59 56 56 58 57 60 69 71 63 53 54 57 61
332 331 332 335 345 355 34 35 75 70 54 297 44 302 345 324 315 329 303 303 322 353 42 65 53 34 27 31 46 66 75 76 71 75 64 50 53 57 61 63 59 60 65 66 66 66 64 61 55 53 60 55 63 59
327 323 333 343 354 32 58 30 33 102 220 281 319 335 315 354 356 340 345 11 38 48 77 46 57 31 29 2 59 77 80 83 92 80 66 52 53 59 63 62 61 57 58 59 60 60 58 57 55 50 46 42 54 54
325 318 341 354 8 63 49 1 20 87 82 332 338 347 347 15 6 10 23 22 31 58 42 44 29 4 356 353 14 70 91 103 104 90 69 49 46 59 59 58 53 55 57 55 56 51 50 48 39 31 27 21 18 9
325 334 341 355 47 55 86 355 26 114 263 41 310 340 3 335 26 22 19 352 46 31 54 28 27 32 35 49 44 59 53 65 58 63 97 84 54 64 62 65 61 53 50 39 33 30 31 20 11 18 8 10 360 347
309 329 333 14 68 51 74 21 146 278 76 265 5 343 27 15 1 16 351 35 50 17 8 7 22 37 47 42 37 48 61 72 73 78 78 84 56 46 47 47 51 43 40 28 22 14 10 8 4 360 356 353 345 344
329 350 36 20 65 43 282 354 60 358 63 325 7 37 19 12 4 336 62 44 56 9 7 20 35 48 59 50 62 64 71 71 66 64 73 78 75 70 67 60 47 34 21 14 13 11 6 359 3 349 350 352 357 2
358 44 50 50 53 277 1 14 24 32 38 26 40 32 6 335 328 58 65 45 39 10 27 26 28 31 42 41 42 36 43 68 81 72 67 76 64 49 50 51 48 36 22 7 7 7 6 4 356 357 357 353 355 1
66 339 62 351 331 48 30 6 349 42 50 336 59 4 339 334 66 64 97 219 69 6 26 33 47 51 73 18 48 47 38 49 64 76 65 59 58 56 49 45 38 28 12 8 2 356 354 356 356 356 352 351 339 335
71 313 71 283 322 81 167 35 12 205 100 33 297 272 2 82 73 162 172 149 136 102 27 26 17 20 39 32 340 3 4 8 56 100 78 65 49 44 29 13 357 5 5 0 347 345 345 347 346 343 341 341 335 328
66 339 334 30 114 99 60 37 35 87 75 110 288 13 55 76 202 215 122 74 111 110 338 336 6 3 330 340 359 2 6 1 354 156 135 132 73 46 27 10 348 350 351 346 350 348 340 336 335 336 332 330 329 325
118 49 64 307 57 21 119 56 62 131 249 267 70 42 146 177 172 106 105 132 51 5 331 192 286 328 339 334 6 21 27 36 111 141 169 218 233 287 358 0 359 352 353 357 349 341 338 336 336 330 328 322 319 320
47 6 95 20 24 42 89 142 210 288 359 106 130 217 233 254 254 159 147 78 97 51 105 152 62 12 30 26 38 46 42 44 152 66 53 310 347 347 346 350 352 351 355 354 353 346 338 335 334 331 325 328 326 326
7 10 84 51 85 33 254 158 219 248 35 132 212 30 18 300 175 184 183 150 136 68 48 55 70 90 53 32 4 356 36 38 38 43 34 294 314 329 337 342 343 342 347 348 345 344 347 347 352 357 359 359 358 349
337 33 68 62 124 254 228 161 82 68 34 24 10 133 204 280 229 208 200 185 155 106 67 60 60 352 337 357 353 342 355 285 328 339 333 328 330 333 337 336 334 330 338 339 340 338 339 343 349 350 354 356 358 353
9 52 115 89 292 301 85 62 31 55 349 35 333 350 357 38 304 214 206 192 186 191 141 30 24 10 307 285 315 322 294 298 317 324 330 332 332 336 333 329 322 329 330 332 334 333 334 336 338 341 344 351 354 356
16 31 50 83 49 319 313 82 20 356 23 22 321 279 233 191 229 259 186 191 194 189 176 36 10 357 337 317 320 303 303 320 328 328 322 319 319 321 324 328 330 327 324 326 329 331 330 332 334 336 337 343 350 355